AO-07 1 07530U 74089B 26120.59626755 -.00000031 00000-0 96085-4 0 9996 2 07530 101.9926 133.3432 0011994 220.6153 258.4322 12.53697390354550 UO-11 1 14781U 84021B 26120.63125062 .00001359 00000-0 14431-3 0 9996 2 14781 97.8024 86.7520 0007351 353.7891 6.3235 14.90668042250043 AO-27 1 22825U 93061C 26120.59124487 .00000109 00000-0 58602-4 0 9994 2 22825 98.6901 188.0163 0007443 235.3832 124.6649 14.30928987700195 FO-29 1 24278U 96046B 26120.47426956 .00000013 00000-0 50669-4 0 9996 2 24278 98.5296 335.8670 0349180 220.1294 137.3578 13.53271984466712 GO-32 1 25397U 98043D 26120.43948020 .00000063 00000-0 47326-4 0 9996 2 25397 99.0062 111.9975 0001611 35.8621 324.2665 14.24418789444537 ISS 1 25544U 98067A 26120.52250176 .00006189 00000-0 12023-3 0 9994 2 25544 51.6315 176.0292 0007158 7.8188 352.2911 15.49033593564362 NO-44 1 26931U 01043C 26120.38474986 .00000155 00000-0 88631-4 0 9990 2 26931 67.0526 7.9102 0006454 264.0053 96.0313 14.31937124283603 SO-50 1 27607U 02058C 26120.61380811 .00001265 00000-0 16633-3 0 9992 2 27607 64.5517 276.1629 0075618 271.1171 88.1272 14.82940590257400 CO-55 1 27844U 03031E 26120.61928520 .00000312 00000-0 15395-3 0 9998 2 27844 98.6753 129.7745 0008876 330.4565 29.6111 14.24305462184908 RS-22 1 27939U 03042A 26120.61250030 .00000739 00000-0 12220-3 0 9996 2 27939 98.3465 303.6310 0012451 62.4503 25.9615 14.73379983208547 CO-65 1 32785U 08021C 26120.57822720 .00004835 00000-0 30988-3 0 9991 2 32785 97.8249 101.0318 0008844 179.6083 180.5154 15.08992068978015 CO-66 1 32791U 08021J 26120.45175439 .00020092 00000-0 67012-3 0 9994 2 32791 97.7523 116.1352 0005105 108.3124 251.8672 15.31103491979987 RS-30 1 32953U 08025A 26120.53591584 .00000028 00000-0 12623-3 0 9995 2 32953 82.5081 25.0777 0020601 56.2206 304.0833 12.43177720813777 SRMSAT 1 37841U 11058D 26120.64063082 .00000431 00000-0 90343-4 0 9999 2 37841 19.9736 347.2598 0011744 41.3226 351.6382 14.11564464751099 ZACUBE-1 1 39417U 13066B 26120.40955899 .00005584 00000-0 43585-3 0 9990 2 39417 97.8125 82.4893 0043675 53.2749 307.2473 15.00793807673560 Delfi-N3xt 1 39428U 13066N 26120.51689157 .00009440 00000-0 83129-3 0 9998 2 39428 97.8353 40.8915 0075595 6.9012 353.3230 14.94487301667503 GOMX-1 1 39430U 13066Q 26120.51682591 .00001486 00000-0 23032-3 0 9995 2 39430 97.6519 323.9831 0127688 230.2625 128.7276 14.69275071662918 LO-74 1 39440U 13066AA 26120.42970364 .00002755 00000-0 25964-3 0 9990 2 39440 97.8881 69.2303 0057709 184.2052 175.8690 14.93419487669867 AO-73 1 39444U 13066AE 26120.45083755 .00009895 00000-0 62276-3 0 9995 2 39444 97.8252 90.9324 0037047 9.4409 350.7507 15.08828815672461 DTUSAT-2 1 40030U 14033W 26120.47559618 .00007927 00000-0 43552-3 0 9991 2 40030 98.0858 115.2001 0009109 47.4202 312.7795 15.14375567645468 LILACSAT-2 1 40908U 15049K 26120.58300029 .00017927 00000-0 32241-3 0 9999 2 40908 97.4716 155.6566 0008657 73.9776 286.2428 15.49864518588370 Horyu-4 1 41340U 16012D 26120.52098681 .00145472 00000-0 94490-3 0 9994 2 41340 30.9895 62.4942 0006347 279.9281 80.0658 15.74401799563258 Lapan A3 1 41603U 16040E 26120.60475993 .00003919 00000-0 12595-3 0 9996 2 41603 97.1486 118.3273 0010337 175.3397 184.7944 15.32791975547524 CAS-2T 1 41847U 16066G 26120.44803345 .00000652 00000-0 10193-3 0 9995 2 41847 98.3830 196.7230 0340924 274.4340 81.7982 14.44572896497905 TechnoSat 1 42829U 17042E 26120.50527841 .00003377 00000-0 24373-3 0 9994 2 42829 97.4236 280.0028 0016074 254.9274 105.0174 15.04665469479531 AO-91 1 43017U 17073E 26120.56760982 .00009642 00000-0 42505-3 0 9997 2 43017 97.4776 348.7762 0154191 132.5723 228.8640 15.11842589458199 S-Net D 1 43186U 18014G 26120.62208442 .00005397 00000-0 28254-3 0 9993 2 43186 97.5403 25.7182 0008374 171.0906 189.0477 15.16218583451559 S-Net B 1 43187U 18014H 26120.30262479 .00005079 00000-0 26629-3 0 9990 2 43187 97.5408 25.3861 0009103 168.5071 191.6371 15.16186010451506 S-Net A 1 43188U 18014J 26120.62119372 .00005622 00000-0 29407-3 0 9990 2 43188 97.5417 25.9026 0009011 168.1712 191.9734 15.16225280451556 S-Net C 1 43189U 18014K 26120.30623640 .00004941 00000-0 25913-3 0 9995 2 43189 97.5435 25.6569 0010559 163.4871 196.6708 15.16177368450059 Ten-Koh 1 43677U 18084G 26120.51726923 .00002211 00000-0 17038-3 0 9992 2 43677 98.0790 310.8788 0007393 279.4851 80.5537 15.02737140409006 PO-101 1 43678U 18084H 26120.61768073 .00002281 00000-0 18741-3 0 9995 2 43678 98.1069 314.7988 0012905 334.2272 25.8306 15.00213077409084 QO-100 1 43700U 18090A 26120.49191795 .00000147 00000-0 00000-0 0 9990 2 43700 0.0137 266.9736 0001700 165.7205 348.6817 1.00277015 27199 MinXSS-2 1 43758U 18099A 26120.17251933 .00037732 00000-0 83193-3 0 9995 2 43758 97.4564 195.1661 0008699 86.6211 273.6032 15.43781740406710 AO-95 1 43770U 18099N 26120.14912640 .00011872 00000-0 46841-3 0 9991 2 43770 97.4423 180.6034 0009975 149.6725 210.5092 15.25656511405890 SNUSat 2 1 43782U 18099AA 26120.58539330 .00008411 00000-0 38053-3 0 9994 2 43782 97.4102 174.7178 0012112 102.8902 257.3688 15.21092225405796 SnugLite 1 43784U 18099AC 26120.62301173 .00012502 00000-0 48672-3 0 9997 2 43784 97.3910 175.3995 0004544 100.4524 259.7227 15.26124840406062 ITASat 1 1 43786U 18099AE 26120.58347617 .00006702 00000-0 32799-3 0 9995 2 43786 97.4069 173.0576 0013689 152.7861 207.4093 15.18431286405688 EAGLET 1 1 43790U 18099AJ 26120.55936735 .00004708 00000-0 27311-3 0 9990 2 43790 97.4273 171.4926 0012265 144.7087 215.4959 15.12566969405132 ESEO 1 43792U 18099AL 26120.61579705 .00001029 00000-0 78379-4 0 9993 2 43792 97.4011 160.0364 0013386 130.1813 230.0587 15.04094766404653 JO-97 1 43803U 18099AX 26120.44163872 .00018306 00000-0 59148-3 0 9999 2 43803 97.4165 183.1590 0007243 87.0718 273.1353 15.32125843406318 Suomi 100 1 43804U 18099AY 26120.13373230 .00012858 00000-0 48218-3 0 9999 2 43804 97.4227 180.7383 0011754 92.7798 267.4787 15.27309788406081 ISAT 1 43879U 18111D 26120.34894173 .00079102 00000-0 10536-2 0 9999 2 43879 97.5909 52.1910 0008783 107.0035 253.2183 15.57836101403707 UWE-4 1 43880U 18111E 26120.27520350 .00033104 00000-0 74416-3 0 9996 2 43880 97.5865 46.5727 0010273 127.1071 233.1116 15.43217639403384 Sparrow 1 43881U 18111F 26120.59753454 .00099918 00000-0 10698-2 0 9991 2 43881 97.6130 57.3785 0007214 124.0858 236.1086 15.63499996403913 Prox-1 1 44339U 19036A 26120.10770695 .00015990 00000-0 16095-2 0 9995 2 44339 23.9953 75.1193 0006557 194.7556 165.2752 14.89453634366293 Taurus 1 1 44530U 19059C 26120.51868634 .00006853 00000-0 11100-2 0 9999 2 44530 98.6370 282.4197 0009795 103.7836 256.4460 14.71565351351635 TO-108 1 44881U 19093C 26120.52066606 .00000444 00000-0 56246-4 0 9998 2 44881 97.7552 193.9138 0012137 241.5791 118.4202 14.86439991344338 RS-44 1 44909U 19096E 26120.62724622 .00000020 00000-0 41717-4 0 9999 2 44909 82.5258 11.3107 0216386 255.5417 102.1587 12.79747949296264 SALSAT 1 46495U 20068K 26120.45042489 .00008489 00000-0 30299-3 0 9996 2 46495 97.8854 120.6367 0011665 107.7663 252.4849 15.29083608308068 CSS (TIANHE-1) 1 48274U 21035A 26120.31498218 .00029313 00000-0 31348-3 0 9993 2 48274 41.4672 253.4465 0006644 301.0493 58.9694 15.63205886285684 CUTE 1 49263U 21088D 26120.53091714 .00069674 00000-0 46542-3 0 9990 2 49263 97.4199 215.9528 0000987 140.2514 219.8823 15.75129279255012 TeikyoSat 4 1 49396U 21102B 26120.58887221 .00001607 00000-0 10437-3 0 9991 2 49396 97.3707 151.9191 0013791 96.7285 263.5514 15.09333694245540 Z-Sat 1 49399U 21102E 26120.60743559 .00003184 00000-0 15971-3 0 9992 2 49399 97.3371 157.3769 0018284 57.0424 303.2565 15.17894011246226 KOSEN 1 1 49402U 21102H 26120.35427331 .00007974 00000-0 31043-3 0 9995 2 49402 97.3231 163.4537 0014218 24.4601 335.7309 15.26167390246729 HO-113 1 50466U 21131B 26120.64050645 .00000611 00000-0 20260-3 0 9991 2 50466 98.4957 213.2950 0003091 229.5193 130.5727 14.41311187228267 SNUGLITE 2 1 52899U 22065F 26120.40315336 .00001130 00000-0 22348-3 0 9991 2 52899 98.2133 265.3385 0007852 164.8498 195.2941 14.64255007204006 UmKA 1 (RS40S) 1 57172U 23091G 26120.58016625 .00006350 00000-0 29519-3 0 9994 2 57172 97.5088 179.4714 0011251 287.0872 72.9131 15.20274303156774 CubeBel-2 (EU11S) 1 57175U 23091K 26120.52691763 .00013004 00000-0 47745-3 0 9998 2 57175 97.5087 183.3529 0008427 283.7278 76.3023 15.28041078157024 RS-38S 1 57189U 23091Z 26120.63236377 .00016695 00000-0 50090-3 0 9997 2 57189 97.5120 189.2157 0006493 229.9986 130.0687 15.34517994157394 SONATE-2 1 59112U 24043Q 26120.38537620 .00040443 00000-0 59507-3 0 9990 2 59112 97.5479 267.9964 0006534 23.0616 337.0930 15.55323705120453 GRBBeta 1 60237U 24128C 26120.16300868 .00004275 00000-0 29747-3 0 9998 2 60237 61.9921 24.7077 0046692 124.5499 236.0014 15.06246315 99036 Curium One 1 60242U 24128H 26120.29369250 .00008622 00000-0 50299-3 0 9994 2 60242 61.9807 15.3042 0046210 121.0787 239.4856 15.11735121 99216 ROBUSTA-3A 1 60243U 24128J 26120.43079215 .00008504 00000-0 50698-3 0 9992 2 60243 61.9886 17.0301 0047317 118.5531 242.0339 15.10923460 99207 CatSat 1 60246U 24125J 26120.61478375 .00050071 00000-0 77163-3 0 9994 2 60246 97.2135 332.6735 0023070 2.7620 357.3757 15.53715587 99995 HYPERVIEW-1G (RS66S) 1 61772U 24199AP 26120.58751286 .00086956 00000-0 84989-3 0 9996 2 61772 97.2978 358.2776 0009065 96.0705 264.1588 15.65839180127204 AO-123 1 61781U 24199AY 26120.58680085 .00008300 00000-0 24609-3 0 9994 2 61781 97.3069 349.6955 0015733 116.8757 243.4097 15.34966487126623 JINJUSat 1B 1 63210U 25052A 26120.22642149 .00017291 00000-0 56137-3 0 9992 2 63210 97.4060 16.9607 0001350 231.0785 129.0337 15.32008456 62753 NUSHSAT 1 1 63211U 25052B 26120.60214753 .00021160 00000-0 64215-3 0 9997 2 63211 97.4041 17.7521 0001015 230.4217 129.6936 15.34123011 62846 TEVEL2-4 1 63213U 25052D 26120.62070811 .00018444 00000-0 58131-3 0 9997 2 63213 97.3962 16.9829 0000347 316.1175 44.0040 15.32945027 62824 TEVEL2-5 1 63214U 25052E 26120.44039566 .00019688 00000-0 62327-3 0 9993 2 63214 97.3960 16.7632 0000428 311.7824 48.3381 15.32791045 62795 TEVEL2-6 1 63215U 25052F 26120.64742009 .00019145 00000-0 60679-3 0 9995 2 63215 97.3962 16.9554 0000497 308.8887 51.2311 15.32759360 62829 TEVEL2-1 1 63217U 25052H 26120.46497484 .00019231 00000-0 61874-3 0 9995 2 63217 97.3936 16.4513 0001070 345.5359 14.5852 15.32275390 62785 TEVEL2-3 1 63218U 25052J 26120.65708406 .00018565 00000-0 59650-3 0 9994 2 63218 97.3940 16.6597 0001080 343.6471 16.4736 15.32327642 62814 TEVEL2-2 1 63219U 25052K 26120.66141397 .00018724 00000-0 60232-3 0 9991 2 63219 97.3937 16.6490 0001079 344.9311 15.1898 15.32287401 62811 TEVEL2-9 1 63237U 25052AD 26120.44881295 .00017886 00000-0 60935-3 0 9993 2 63237 97.4000 15.9099 0004769 328.4859 31.6096 15.30434540 62722 TEVEL2-7 1 63238U 25052AE 26120.21958078 .00016618 00000-0 57106-3 0 9991 2 63238 97.4003 15.6165 0004923 329.3629 30.7323 15.30168799 62682 TEVEL2-8 1 63239U 25052AF 26120.61966130 .00016204 00000-0 55704-3 0 9997 2 63239 97.3999 15.9936 0004839 329.1455 30.9500 15.30162602 62749 HYDRA-W 1 63490U 25052BL 26113.93882235 .05662091 24406-5 29537-2 0 9997 2 63490 97.3690 18.2798 0008685 203.5899 156.4993 16.20186780 62336 HADES-ICM (SO-125) 1 63492U 25052BN 26120.17329350 .00491395 00000-0 25041-2 0 9994 2 63492 97.3820 23.2455 0004471 153.3500 206.7998 15.80099034 63200 SPIRONE 1 66657U 25274H 26120.34934002 .00002844 00000-0 27630-3 0 9995 2 66657 97.7475 50.3354 0012444 165.8106 194.3466 14.93345709 23084 K-HERO 1 66660U 25274L 26120.36747734 .00002099 00000-0 20302-3 0 9996 2 66660 97.7485 50.4787 0014087 171.0409 189.1065 14.93779785 23093 SNUGLITE-III DURI 1 66661U 25274M 26120.35685624 .00002143 00000-0 20688-3 0 9992 2 66661 97.7479 50.4870 0014695 172.7075 187.4361 14.93838391 23091 SilverSat 1 66909U 98067XV 26113.44966717 .07226154 12288-4 11979-2 0 9998 2 66909 51.6027 190.0749 0007952 333.4666 26.5949 16.32457272 22308 SAKHACUBE-CHOLBON 1 67290U 25313AU 26120.43968107 .00010040 00000-0 41674-3 0 9997 2 67290 97.3951 196.1010 0010296 156.8142 203.3562 15.23992200 18703 RS95S (QMR-KWT-2) 1 67291U 25313AV 26120.20320033 .00015023 00000-0 60321-3 0 9999 2 67291 97.3951 195.9575 0010147 156.6625 203.5076 15.25010223 18672 Ten-Koh2 1 68261U 25241B 26120.39561297 .00006717 00000-0 29306-3 0 9994 2 68261 51.6489 187.0004 0005788 350.6255 9.4613 15.23280865 7620 JACK-002 1 68417U 26067B 26120.60240878 .00006891 00000-0 33446-3 0 9990 2 68417 97.4536 79.8143 0004160 88.1169 272.0541 15.18786870 4723 DISCO 2 1 68431U 26067R 26120.61171038 .00009311 00000-0 45617-3 0 9991 2 68431 97.4573 79.8175 0003643 127.1484 233.0084 15.18362870 4723 HADES-SA (SpinnyONE) 1 68446U 26067AG 26120.57008563 .00020045 00000-0 10023-2 0 9993 2 68446 97.4381 79.6489 0005169 226.6246 133.4558 15.17460741 4700 PARUS-6U1 1 68456U 26067AS 26120.57217281 .00006302 00000-0 32207-3 0 9992 2 68456 97.4522 79.6979 0004404 212.8364 147.2597 15.17010219 4719 SAL-E 1 68458U 26067AU 26120.57221831 .00008539 00000-0 43438-3 0 9992 2 68458 97.4447 79.6698 0004323 225.0140 135.0744 15.17068978 4717 FSI-SAT 2 1 68792U 26088A 26115.68414791 .00000849 00000-0 61705-4 0 9995 2 68792 97.4990 266.2992 0012809 287.5176 72.4651 15.06389719 389 OrigamiSat 2 1 68795U 26088D 26113.82356135 .00001590 00000-0 10758-3 0 9994 2 68795 97.5008 264.4888 0014430 266.4157 93.5420 15.07861282 103 ARICA 2 1 68796U 26088E 26113.82352201 .00001593 00000-0 10752-3 0 9992 2 68796 97.4989 264.4863 0014541 264.6248 95.3321 15.07951070 103 WASEDA-SAT-ZERO-II 1 68797U 26088F 26113.82350997 .00001596 00000-0 10767-3 0 9992 2 68797 97.5012 264.4822 0014814 262.4592 97.4954 15.07975758 102 MANGARO-II-Piscus 1 68798U 26088G 26113.82334568 .00001591 00000-0 10611-3 0 9992 2 68798 97.4999 264.4888 0017891 266.9056 93.0125 15.08353756 101 IO-86 1 40931U 25360.30710720 .00000000 00000-0 12800-3 0 00 2 40931 6.0006 332.5373 0012733 338.8432 8.1437 14.79075515 01 LILIUM-4 1 71922C 26067AC 26089.50133053 -.00014632 00000 0 -74472-3 0 04 2 71922 97.4497 49.1617 0004341 5.9603 355.7042 15.16896692 16